Theta_e
342 344 346 347 349 351 351 351 352 352 352 351 351 350 349 349 349 349 349 348 348 350 349 349 350 349 349 349 349 350 350 350 351 349 348 346 344 342 343 345 345 345 346 345 344 344 346 346 347 348 347 346 346 346 344 342 343 344 343 344 344 344 345 348 349 350 350 350 346 338 332 331 327 323
340 343 345 347 349 351 352 353 353 353 353 352 351 351 351 350 349 348 348 348 349 350 350 351 351 351 350 349 350 351 351 352 352 350 348 347 345 342 341 344 345 345 346 347 345 345 346 347 347 348 349 347 347 346 345 342 342 343 343 343 343 344 344 345 347 348 349 350 349 344 336 332 330 326
342 342 343 345 347 349 350 351 352 352 352 352 351 351 351 350 350 349 349 349 349 350 351 351 352 352 351 350 349 351 352 352 351 351 350 348 347 344 342 343 345 346 345 346 346 347 347 348 348 349 349 348 347 347 346 343 342 342 342 340 338 341 344 344 345 346 347 349 350 348 342 335 332 329
345 345 345 344 344 348 351 351 351 351 350 349 348 349 351 350 350 350 350 351 351 350 351 351 351 351 351 349 349 350 351 351 351 351 351 350 349 348 346 345 345 347 346 345 346 347 347 348 348 349 350 349 348 348 346 344 343 342 342 337 333 335 341 343 343 344 345 347 349 350 347 341 334 332
348 349 348 347 346 348 352 353 352 350 349 349 349 350 350 351 350 350 350 351 351 350 350 351 351 351 351 350 349 349 350 350 349 350 350 351 351 350 349 347 346 347 348 347 348 347 348 348 348 350 350 350 349 348 346 345 344 342 341 338 330 328 336 342 342 343 343 345 346 349 350 346 339 334
347 349 348 348 346 347 349 351 352 351 350 351 352 352 351 351 351 351 351 351 350 350 351 351 351 351 350 350 350 349 349 348 347 347 348 349 350 350 350 348 347 348 348 349 349 349 349 348 347 349 351 351 349 348 346 345 345 343 341 340 333 325 330 339 342 342 343 344 345 347 350 350 346 339
347 349 351 350 349 347 347 348 349 350 351 353 354 353 353 352 352 352 352 352 351 352 352 351 351 351 351 350 349 348 348 348 347 347 347 348 348 349 350 349 348 347 347 348 349 351 350 347 346 348 351 351 349 348 347 347 346 344 341 340 337 329 325 332 341 344 344 344 345 346 347 349 350 345
350 352 353 352 351 351 350 350 351 353 354 355 354 354 354 353 353 352 352 352 352 352 352 352 352 352 351 349 346 345 346 346 346 347 347 347 347 348 348 347 347 345 345 347 350 351 350 347 346 348 350 351 350 348 347 347 345 344 341 339 337 334 327 327 335 343 345 346 345 345 346 347 349 349
350 351 350 349 350 350 350 351 353 354 355 355 354 354 354 354 353 352 353 352 352 352 352 352 352 351 351 349 346 345 345 343 343 345 346 346 346 346 346 345 343 343 343 347 349 349 348 346 347 348 348 349 349 348 347 347 345 342 340 338 335 333 330 327 329 337 344 347 347 346 347 347 348 349
351 350 349 349 349 349 350 351 352 354 354 355 355 354 353 353 353 353 353 352 352 352 353 352 352 351 350 349 346 344 343 343 342 344 346 347 347 347 346 344 343 342 344 347 347 346 347 347 348 348 347 348 349 348 347 346 344 340 338 337 334 328 328 327 325 330 338 344 347 347 348 348 348 348
353 352 352 352 350 350 350 352 354 355 355 355 354 354 353 352 352 352 352 353 352 351 352 352 351 350 349 346 343 342 343 344 343 344 346 347 347 347 346 345 343 342 342 345 345 344 346 348 349 347 347 349 349 348 347 344 342 340 336 333 330 324 323 325 323 324 331 338 342 345 347 348 350 349
353 353 353 352 352 351 351 353 354 354 353 354 353 352 352 351 352 352 352 352 352 352 352 352 351 351 349 345 342 342 343 342 344 346 347 347 347 348 347 346 345 342 341 342 342 343 346 349 349 347 347 349 349 348 347 344 341 340 335 330 326 321 319 321 320 320 324 331 337 341 344 346 347 348
352 353 352 352 352 351 352 351 348 347 351 353 352 351 351 351 351 351 351 352 351 351 352 351 351 351 350 346 344 344 345 344 344 345 346 346 346 348 348 347 346 345 342 341 342 344 346 348 349 347 347 349 349 348 347 343 340 338 333 329 327 324 320 318 318 318 319 322 329 334 339 343 345 347
353 353 352 352 352 352 352 351 348 348 351 353 352 352 351 350 350 350 351 351 351 350 350 350 350 351 350 348 347 347 348 347 347 346 345 345 346 346 347 347 347 347 344 342 342 344 346 347 347 347 347 348 349 348 345 342 341 337 332 329 330 329 325 320 317 317 317 317 320 324 330 336 342 346
353 353 352 352 352 352 352 352 351 350 349 351 352 353 351 350 349 350 350 350 350 350 350 349 349 349 347 346 346 346 346 348 348 348 347 348 347 347 348 348 348 348 347 345 344 344 345 347 346 345 347 348 348 348 345 342 340 337 333 332 333 332 329 324 320 319 317 316 316 317 319 325 333 340
353 353 353 353 353 353 353 352 352 351 350 350 351 352 351 351 350 350 350 350 350 350 350 348 347 346 345 344 344 344 345 347 348 348 348 349 349 349 349 349 348 349 348 347 345 344 345 346 346 345 346 348 348 346 344 342 341 339 335 334 335 335 331 327 324 323 319 315 315 315 315 317 323 330
352 353 353 353 353 353 353 352 351 351 351 351 351 350 351 350 349 349 349 349 349 349 349 348 346 346 346 345 345 345 346 347 347 347 347 348 349 350 350 350 349 349 350 349 347 346 346 346 345 345 346 348 348 346 344 342 341 339 337 336 335 335 333 330 328 326 321 315 312 313 314 316 319 324
352 352 353 353 353 353 353 352 351 350 351 351 351 349 349 349 349 349 349 348 348 348 348 348 347 346 347 347 347 347 347 347 347 347 347 346 347 348 349 350 350 350 350 350 349 348 346 345 345 345 347 348 348 347 345 342 341 340 337 336 335 335 334 332 329 327 321 314 310 311 313 316 318 321
351 352 352 353 353 353 353 353 352 351 350 351 351 349 349 349 349 349 349 349 349 349 348 348 347 346 346 347 348 347 347 348 348 348 347 346 346 347 348 349 349 351 351 350 350 348 346 346 346 346 347 348 348 347 345 343 342 341 338 336 335 334 334 331 329 327 320 312 309 309 311 315 319 322
351 351 352 352 352 351 352 352 351 351 350 351 351 350 349 348 349 349 349 349 349 349 348 347 346 346 346 348 348 348 348 348 349 348 348 347 347 347 347 347 348 350 350 349 349 349 347 347 347 346 346 347 347 347 346 343 342 341 338 336 335 334 332 330 328 326 318 310 309 310 310 314 320 324
350 351 351 351 350 350 351 350 350 350 350 350 350 349 349 349 348 348 347 346 347 347 347 346 346 346 347 347 347 346 346 347 348 349 348 347 348 349 348 348 348 349 350 350 350 350 348 347 348 347 347 346 347 348 346 344 342 340 338 336 334 333 331 329 328 325 318 311 308 311 312 316 322 327
350 351 351 350 350 350 349 349 349 349 349 349 348 348 347 347 346 345 345 345 346 346 346 346 346 346 345 345 345 344 344 345 346 348 347 347 348 349 349 349 350 349 349 349 350 350 349 348 348 347 346 346 346 347 347 345 342 340 338 335 334 332 330 329 327 325 321 315 310 311 316 319 324 328
350 351 351 350 349 349 349 349 348 347 347 347 346 346 346 346 345 345 345 345 344 344 344 343 343 343 343 342 343 342 342 343 344 346 346 346 347 348 349 349 349 348 348 347 348 349 349 349 349 346 345 345 346 346 346 345 342 339 337 335 333 331 330 329 327 326 326 322 313 311 317 323 327 328
350 350 351 350 349 349 349 349 348 347 347 346 346 346 346 345 345 345 344 343 342 341 341 341 341 341 341 341 341 341 342 342 342 342 342 343 345 347 348 348 348 347 347 347 347 348 348 349 349 345 343 343 345 345 344 343 340 338 336 334 332 330 329 328 327 327 328 327 320 313 314 321 326 327
350 349 349 349 349 349 348 347 348 348 347 346 346 345 345 344 343 342 341 340 340 339 339 339 339 339 339 339 339 339 340 340 340 340 340 340 343 345 347 348 347 347 347 347 347 347 347 347 345 342 341 343 344 343 341 339 338 337 334 332 332 330 329 328 328 328 328 328 325 317 313 316 320 322
347 347 348 347 347 346 346 345 345 345 343 342 341 341 341 340 338 338 338 337 337 336 335 335 336 336 336 337 338 339 339 340 340 340 340 341 341 343 344 345 346 345 345 346 345 344 344 344 341 338 338 341 341 341 339 337 336 334 332 331 331 331 329 328 328 328 328 328 325 318 314 315 316 319
341 342 344 345 344 344 344 342 340 339 337 337 337 337 336 336 336 335 335 335 335 334 335 335 336 336 337 338 339 339 341 342 342 342 343 343 343 343 343 343 343 343 342 341 341 341 340 341 339 336 335 335 336 336 336 334 332 329 327 329 331 331 329 328 328 328 328 327 324 320 317 317 317 318
339 341 342 342 340 340 339 338 337 336 336 336 335 335 335 335 334 334 334 334 334 335 336 337 337 338 339 339 340 341 342 343 343 343 342 342 341 341 340 339 339 339 338 336 335 335 334 335 335 333 332 333 333 332 330 328 328 328 327 328 331 331 329 328 328 328 327 325 324 322 321 319 318 319
335 336 336 336 335 336 336 336 335 336 336 334 334 333 333 333 333 334 334 335 336 337 338 338 338 338 339 339 339 339 339 339 339 338 337 337 336 334 334 333 333 333 331 330 329 329 330 332 332 332 332 332 329 326 325 326 327 328 329 329 329 329 329 328 327 327 326 325 324 324 323 320 318 319
331 333 333 334 335 336 337 336 336 335 333 332 332 333 333 333 333 333 334 336 336 337 336 337 336 336 335 335 335 334 334 334 333 332 332 331 330 328 328 328 328 326 325 323 323 322 322 324 327 328 327 323 319 320 322 324 325 327 327 327 327 328 329 328 327 326 325 324 325 324 323 320 318 319
330 332 333 334 336 336 336 335 334 333 330 330 331 331 331 332 332 332 333 334 334 334 334 333 332 332 331 331 331 330 329 329 328 327 326 326 325 324 324 324 324 322 321 321 319 318 316 315 315 317 315 313 314 318 322 324 325 325 325 326 327 327 327 327 326 325 325 325 325 323 321 319 319 320
331 332 333 334 334 335 335 334 332 329 328 329 330 330 329 330 331 331 331 331 331 331 330 330 330 329 329 328 328 327 327 326 325 323 323 322 322 321 320 321 322 321 320 319 317 316 313 311 310 310 309 310 313 318 320 322 324 324 324 325 325 325 325 325 325 325 324 323 323 321 318 318 319 321
333 334 334 333 333 333 332 330 327 328 329 329 329 329 329 329 330 330 330 329 329 329 328 328 327 326 325 325 325 325 324 323 323 322 321 320 318 316 314 315 317 317 316 315 314 313 312 311 313 314 312 311 315 318 319 321 323 324 324 325 325 324 324 324 323 323 322 322 321 319 316 317 320 322
328 329 329 329 329 330 329 326 326 329 330 328 328 329 329 329 329 329 328 328 328 327 327 326 325 324 323 323 323 322 321 321 321 320 318 316 315 313 312 312 312 312 312 311 311 311 312 311 313 314 312 311 314 318 319 320 322 324 324 324 324 324 324 323 322 323 322 321 319 317 315 317 320 321
318 319 321 322 324 326 326 325 327 329 329 327 327 328 329 329 328 328 326 325 324 325 325 325 324 324 323 323 322 322 321 320 319 317 316 316 317 316 315 313 311 311 311 311 310 311 311 310 313 316 315 312 313 315 317 319 321 322 323 323 322 322 322 322 321 321 318 317 316 316 316 318 320 319
315 318 320 322 324 325 326 327 328 328 327 326 326 326 327 328 327 325 324 323 323 324 324 324 324 324 323 323 322 322 321 320 319 319 319 320 319 318 317 314 311 310 310 310 310 310 310 310 313 316 317 316 317 317 317 319 320 320 320 320 320 320 320 319 318 316 314 313 315 316 317 318 318 317
319 322 323 324 325 325 326 326 327 326 326 325 325 325 326 326 325 324 323 322 323 323 323 323 323 323 322 322 321 321 321 321 320 320 320 319 319 317 316 314 312 310 309 309 311 313 313 312 312 314 316 318 320 320 319 320 320 320 320 320 319 319 318 316 315 314 313 313 313 315 316 316 316 316
322 324 324 324 325 325 325 325 325 325 325 324 324 324 324 324 323 323 322 322 322 322 322 322 322 322 322 321 321 320 320 320 320 320 320 319 318 317 316 315 314 312 311 311 313 315 315 314 314 313 314 316 319 320 321 322 321 319 319 319 318 317 316 315 315 314 314 312 311 311 312 313 314 314
320 323 324 324 324 324 324 324 325 324 324 323 323 323 323 323 323 322 322 322 321 321 321 320 320 320 321 321 320 320 320 319 320 320 319 319 319 318 317 316 314 313 311 312 313 314 314 314 315 314 313 313 314 315 316 318 319 319 318 317 316 316 315 315 314 314 313 312 311 310 310 311 312 312
316 319 321 322 323 323 323 323 323 323 322 322 322 322 322 322 322 322 322 322 321 320 320 320 320 320 320 319 319 319 318 318 318 318 318 318 318 318 317 316 314 312 311 310 311 313 313 314 314 314 314 313 312 310 310 312 314 316 317 316 315 315 314 314 314 313 312 311 310 310 310 310 311 311
314 315 316 317 318 319 320 320 321 321 321 321 321 321 321 321 322 321 321 321 321 320 320 319 320 319 319 319 319 319 318 318 317 317 316 316 316 316 315 315 314 312 310 309 309 310 311 312 312 312 312 311 310 310 310 311 312 314 315 315 315 314 314 313 313 313 312 311 310 309 309 309 309 309
314 314 313 313 314 314 315 315 316 316 317 318 319 320 320 319 319 319 319 319 318 318 318 318 318 318 317 317 316 315 314 313 312 311 311 311 311 312 312 312 311 310 309 308 308 309 309 309 310 311 310 310 309 310 311 313 313 313 314 314 314 314 314 314 314 312 311 310 309 309 309 308 308 308
314 313 313 312 313 313 312 312 312 312 312 313 314 314 314 314 313 313 313 313 313 313 313 313 313 312 312 311 310 309 308 307 306 306 307 307 308 309 309 309 308 307 306 307 307 307 307 307 307 308 308 308 308 309 310 311 312 312 312 312 312 312 312 313 313 312 311 309 309 309 309 308 308 307
315 314 313 312 312 312 312 312 312 311 311 311 311 311 311 311 311 310 310 310 310 310 309 309 309 308 308 308 307 307 306 305 305 305 306 306 306 306 306 307 307 306 306 306 306 307 307 306 306 306 307 307 308 308 309 310 311 311 310 310 310 309 310 310 311 311 310 309 309 309 309 308 307 307
315 314 313 312 312 311 311 311 311 311 311 311 311 311 310 310 310 309 309 309 309 309 309 308 308 308 307 307 307 306 306 305 304 304 305 306 306 305 305 306 306 306 306 306 307 307 307 307 307 307 307 308 308 308 309 310 310 310 309 309 309 309 309 310 310 310 310 309 309 309 309 308 307 307
Wind_Speed
12 12 13 13 13 12 10 9 9 10 11 11 9 7 7 9 11 11 13 15 13 10 8 8 9 10 11 11 10 9 8 8 7 6 7 7 6 6 8 9 11 12 13 15 16 16 16 17 18 19 19 19 17 16 16 16 15 14 13 12 11 9 6 4 4 5 5 5 5 3 2 3 5 5
14 12 12 12 13 13 12 10 10 11 13 13 11 9 8 9 10 12 14 15 13 10 8 8 10 11 11 11 11 10 10 10 9 8 8 9 9 9 9 10 11 11 11 12 14 15 15 15 17 17 17 17 17 15 15 16 15 15 14 13 11 9 7 5 4 4 4 4 4 4 2 2 4 5
13 13 12 11 12 12 13 13 14 15 15 15 15 13 11 11 12 14 16 17 15 13 12 10 9 10 11 11 11 10 10 11 11 10 10 11 11 11 12 13 13 12 11 10 11 12 13 14 16 16 15 15 15 14 14 15 15 15 14 13 11 10 8 6 5 3 3 3 3 3 3 1 2 3
13 13 13 13 13 12 12 14 15 15 15 13 13 14 14 13 14 14 15 17 17 14 13 11 10 12 13 12 11 10 9 10 11 11 11 12 12 13 15 15 14 13 13 12 11 11 12 14 15 15 14 14 14 13 13 14 15 15 15 13 12 10 8 7 6 4 3 2 2 1 2 1 1 2
13 13 13 14 13 13 13 14 14 14 12 9 9 11 13 14 14 13 13 15 16 15 13 13 13 14 13 11 9 9 10 11 12 12 13 14 14 14 15 15 15 15 14 13 12 12 13 14 16 15 14 13 12 12 12 13 14 14 14 14 12 10 8 6 6 5 3 2 2 1 1 1 1 2
14 13 13 14 14 14 15 16 17 17 13 9 9 11 12 13 14 14 13 14 16 16 15 15 15 14 12 11 10 11 12 13 13 13 14 14 15 15 15 15 16 15 15 13 13 13 13 15 16 15 14 12 11 10 11 13 14 14 14 13 13 11 9 7 5 5 4 2 2 2 1 1 0 2
14 13 13 14 14 14 15 16 17 16 13 11 12 12 13 15 16 15 15 15 16 17 17 17 16 15 13 12 12 11 12 13 13 13 13 14 14 13 14 15 15 15 15 14 13 13 14 15 15 15 14 11 9 9 10 13 13 13 12 13 13 11 10 8 5 4 4 2 2 2 2 1 1 1
15 15 14 14 13 13 13 13 13 14 14 14 15 15 16 17 17 16 15 16 17 18 18 17 16 15 15 14 13 12 12 12 12 13 13 13 13 12 13 14 15 16 15 13 13 13 14 14 14 14 13 11 8 8 10 12 12 11 11 11 12 12 11 9 7 5 4 3 1 2 2 2 1 1
17 18 17 16 15 15 14 13 12 13 14 15 16 16 17 18 17 16 16 17 18 18 18 17 16 16 16 15 14 14 14 13 12 12 13 13 12 12 13 14 15 16 15 12 12 12 13 13 12 12 12 10 8 8 10 11 11 10 9 10 11 11 11 10 8 6 4 3 2 1 1 2 2 1
18 18 18 18 18 18 16 15 14 14 15 16 16 17 17 17 17 17 17 17 17 17 17 17 17 16 16 16 16 15 14 14 13 12 12 11 11 12 13 14 14 15 14 13 12 12 12 11 10 11 11 9 7 8 10 11 10 9 9 8 9 10 10 10 9 7 5 4 2 1 0 1 2 2
19 19 18 19 19 18 18 16 15 16 16 16 15 16 16 16 16 16 16 17 17 17 17 17 18 17 17 18 17 14 14 14 14 12 12 12 12 13 14 14 14 14 14 13 13 13 11 9 8 10 10 8 6 7 9 9 9 9 9 8 7 8 9 9 9 8 6 4 3 2 1 0 1 2
22 21 19 19 17 16 17 17 16 15 15 14 14 15 15 15 15 15 15 16 16 17 18 18 19 19 20 19 17 15 14 15 14 13 14 14 13 14 14 13 14 14 13 13 14 14 12 10 9 10 9 7 5 6 8 8 8 8 8 8 7 7 7 8 8 8 7 6 4 2 1 1 1 2
24 24 23 21 19 18 18 17 15 14 13 13 14 14 14 15 15 15 15 16 16 17 19 20 20 20 20 18 16 16 15 16 16 15 16 16 16 15 14 13 14 15 14 14 14 13 12 11 10 10 9 7 5 5 6 6 7 7 6 6 7 7 7 7 7 8 8 7 5 4 2 1 1 2
27 27 26 25 23 22 20 18 16 15 14 13 14 14 14 15 14 14 15 15 16 16 18 19 18 18 18 17 16 17 17 17 19 18 18 19 18 17 17 15 15 15 15 15 14 13 12 12 12 11 9 6 5 5 6 5 6 6 5 5 7 7 7 6 7 7 8 8 7 6 4 3 2 2
28 27 27 25 24 22 19 18 18 18 16 15 15 15 15 15 14 14 15 15 15 16 17 17 17 18 19 18 17 17 18 18 19 20 19 19 19 19 19 19 17 15 15 15 15 14 14 14 14 13 10 7 6 6 6 5 6 5 5 6 7 8 7 6 6 7 7 8 8 8 7 6 4 3
27 26 25 24 23 21 19 18 18 18 18 18 17 16 15 15 15 15 15 16 17 18 19 20 20 20 20 20 18 18 18 19 19 20 20 20 20 20 20 21 19 17 16 16 17 17 16 16 16 14 11 7 7 7 7 6 6 6 6 7 7 7 7 6 7 8 8 8 8 9 9 8 6 5
25 25 23 22 21 19 17 17 17 17 18 19 19 18 18 17 16 15 16 16 17 19 20 22 22 21 20 21 20 19 20 20 20 21 21 21 22 22 22 23 22 19 18 18 19 18 17 17 17 16 13 10 9 9 8 8 7 7 8 8 7 8 8 7 8 9 10 8 8 9 9 8 7 7
23 23 22 22 21 20 19 19 19 19 19 19 19 20 20 19 17 16 16 17 18 20 21 22 23 22 21 22 23 22 21 21 21 22 22 23 24 24 24 24 23 21 20 20 21 21 20 19 19 17 14 12 11 11 11 10 9 9 9 9 8 8 9 9 10 11 11 9 7 8 9 9 8 7
21 22 22 22 21 20 21 21 21 21 21 20 20 20 20 19 18 18 18 18 19 21 22 23 24 24 23 23 24 24 23 22 22 23 24 25 26 26 25 26 25 24 23 22 23 24 22 19 19 18 15 14 14 13 13 12 11 11 11 10 8 8 9 10 11 12 11 8 6 7 9 9 8 7
21 21 23 24 22 20 21 21 21 21 21 21 22 22 22 21 20 20 20 21 21 22 23 24 25 25 24 24 24 24 24 24 24 24 25 26 26 26 27 28 27 26 26 24 24 26 24 20 19 19 17 16 16 16 15 13 13 13 11 10 8 7 8 9 10 11 10 7 5 6 7 8 8 7
20 22 23 23 22 20 20 20 20 20 22 22 23 24 24 24 24 24 24 24 24 24 25 25 24 24 25 24 24 25 25 25 24 24 25 25 24 25 27 29 29 28 27 25 25 27 26 23 21 20 19 18 18 19 18 15 14 14 12 10 8 7 7 7 8 9 8 6 4 5 6 7 7 6
22 23 23 21 20 20 19 20 20 21 22 22 22 23 24 24 25 25 24 24 24 24 24 24 24 25 25 26 26 26 26 26 25 26 27 26 24 25 27 28 29 29 29 27 26 28 28 25 23 21 21 21 21 21 19 17 15 15 13 11 8 7 7 5 6 6 7 7 3 4 5 6 6 6
25 24 23 21 20 19 19 20 21 21 21 21 21 22 22 23 23 23 24 24 25 25 26 26 26 27 27 28 28 28 28 28 27 28 29 28 26 26 28 28 28 29 30 29 28 28 27 26 26 24 23 24 24 22 19 18 17 16 14 11 8 7 7 4 4 4 5 8 6 2 4 6 6 7
29 24 22 21 19 19 20 19 19 19 19 19 19 19 20 21 23 24 25 26 27 28 28 28 28 28 28 28 28 28 28 27 26 26 27 27 26 26 28 28 27 28 30 31 32 31 28 28 29 27 25 27 26 24 23 21 19 17 15 11 9 9 7 4 2 3 4 6 6 3 3 6 7 8
23 19 18 18 17 16 15 13 12 14 15 15 16 18 19 21 23 25 26 26 26 26 26 26 26 26 26 25 25 25 24 24 23 24 24 23 23 23 25 27 27 28 31 33 32 30 29 30 31 27 26 28 28 25 25 24 20 18 16 12 11 10 8 6 3 2 4 5 6 4 2 5 8 10
9 8 10 12 11 9 8 8 9 10 12 13 14 16 18 19 21 23 24 24 24 23 23 22 23 23 22 21 20 19 18 17 17 18 18 18 19 20 22 25 25 26 28 29 28 26 26 28 28 24 24 25 25 24 25 23 20 19 17 15 12 11 9 8 6 3 4 5 5 4 2 3 7 9
2 2 4 5 5 6 8 9 9 8 10 11 13 15 16 17 18 19 20 21 20 20 20 19 19 18 18 16 15 14 13 13 12 12 13 16 18 19 20 20 20 21 22 23 23 23 22 23 26 25 22 19 17 20 22 21 20 19 19 18 16 13 11 10 8 6 5 4 4 4 3 2 4 6
1 2 3 4 5 6 6 6 7 8 10 11 12 14 14 15 15 16 16 17 16 16 16 15 15 15 15 14 12 11 10 11 12 12 12 13 14 14 14 13 13 15 16 16 16 16 15 16 21 22 19 16 14 15 16 15 14 15 17 19 18 16 13 12 10 8 6 4 3 4 5 5 4 4
3 2 1 1 1 2 2 4 6 8 10 12 14 14 13 13 13 13 13 12 11 11 11 11 11 10 9 8 7 6 6 6 7 6 6 7 7 7 8 8 7 7 8 8 8 8 9 11 15 17 16 14 12 11 12 11 11 13 16 18 18 17 15 14 12 9 7 6 4 4 6 6 6 5
6 6 6 5 4 4 3 5 6 9 12 14 14 12 11 11 10 10 9 9 9 9 9 8 7 6 6 5 5 5 4 4 4 5 5 5 5 5 4 3 3 4 5 5 4 3 3 5 9 13 12 9 7 9 12 13 13 12 12 13 15 16 16 15 12 9 7 6 5 5 6 7 7 6
7 7 6 6 5 4 4 5 8 11 13 13 14 14 14 14 13 12 11 11 11 11 11 10 9 9 8 8 8 7 7 8 10 10 9 7 7 7 5 4 6 8 9 9 9 8 7 4 2 2 3 4 6 10 14 15 14 11 10 11 13 14 15 15 13 11 9 7 6 7 7 7 6 5
6 5 5 5 4 4 4 7 10 11 12 13 15 17 16 16 15 14 13 12 12 12 11 10 10 9 8 8 9 9 10 12 13 12 11 10 10 9 7 5 6 7 7 7 8 8 8 7 6 4 1 4 7 10 12 13 12 10 11 12 11 11 12 13 12 10 8 7 7 8 8 6 4 4
5 5 4 4 3 4 6 8 9 11 13 14 15 15 15 14 13 12 13 13 12 10 9 9 9 8 8 9 10 10 12 13 12 10 10 10 10 9 8 7 6 6 6 6 5 5 6 7 7 6 2 5 8 7 8 11 12 10 10 11 10 9 9 8 7 6 6 7 8 8 9 7 5 5
3 3 3 3 4 5 6 9 11 13 13 14 14 13 12 11 11 11 12 13 11 9 8 9 9 9 9 10 10 10 11 11 10 9 9 9 9 10 10 10 8 7 7 6 5 4 4 5 5 5 4 4 8 8 7 8 10 10 10 9 8 7 7 6 5 6 8 9 9 9 8 7 6 7
4 3 4 4 4 5 8 11 12 11 11 13 13 11 8 9 10 11 12 11 9 8 8 8 8 8 8 9 8 8 8 8 8 8 8 9 11 12 13 13 11 10 8 6 6 6 5 3 3 2 2 4 7 8 7 7 8 9 10 9 8 7 7 7 8 9 11 10 8 6 7 8 8 8
7 7 7 8 8 9 10 10 9 9 10 12 11 8 7 8 9 11 12 10 8 6 7 7 7 8 7 7 7 7 7 7 7 8 9 10 12 13 14 14 13 12 11 8 6 5 4 2 0 2 3 5 7 8 8 8 8 8 8 8 8 8 8 7 7 8 8 7 5 5 6 8 9 8
11 11 10 10 11 11 10 9 7 8 9 11 9 8 7 8 9 10 10 9 6 5 5 6 7 7 7 7 8 8 7 7 8 9 11 12 12 13 13 13 12 11 10 8 7 6 5 4 2 4 4 5 8 9 9 9 10 9 9 9 9 8 8 8 7 7 6 6 7 7 8 9 9 8
11 11 11 11 11 10 9 8 7 7 8 8 9 8 8 8 8 7 6 6 5 5 5 6 7 7 6 6 8 9 9 10 10 12 13 14 15 15 14 13 11 10 8 7 6 6 6 5 3 4 5 4 6 8 10 11 11 10 10 10 9 8 7 8 7 6 5 4 5 6 7 9 9 8
13 11 11 12 11 10 9 8 7 6 6 6 7 7 7 6 5 4 3 4 4 4 4 5 6 6 6 8 9 11 11 12 13 14 15 16 17 17 17 15 13 11 9 8 7 7 7 6 5 5 5 5 5 7 8 11 12 11 9 8 8 6 6 6 5 4 3 2 2 2 4 6 7 7
15 11 10 9 8 7 7 7 6 6 5 5 4 4 4 3 2 3 4 5 5 5 5 6 7 7 8 9 10 11 12 14 15 16 16 17 18 19 18 17 15 13 11 10 9 8 8 8 6 5 6 6 6 7 7 9 11 11 10 9 9 7 6 5 4 3 2 2 1 1 3 5 6 6
15 13 11 9 8 7 7 7 6 5 4 4 3 3 3 4 5 6 7 7 7 8 8 9 9 10 11 13 14 15 16 17 18 19 20 20 20 19 18 17 15 14 12 10 10 9 9 8 7 6 6 6 6 6 5 6 7 7 7 9 11 9 7 6 5 4 4 2 2 1 2 4 4 4
14 15 14 13 13 12 12 12 11 9 8 7 7 8 8 9 11 12 13 13 13 13 13 13 14 14 15 15 16 17 17 18 18 18 18 19 18 16 15 14 13 12 12 11 11 11 10 9 8 7 7 7 5 5 7 7 7 6 5 7 8 8 8 8 6 5 4 2 1 1 1 2 2 3
13 14 14 14 15 16 17 17 16 15 12 11 10 10 11 13 15 16 17 18 17 17 17 16 16 16 15 15 15 15 15 16 16 16 15 15 14 13 11 10 10 10 10 10 10 11 11 11 10 10 9 7 6 7 9 9 8 7 5 5 6 7 9 9 8 7 4 2 0 1 2 2 2 1
12 12 13 15 16 17 18 18 18 17 15 14 13 13 15 17 18 19 20 20 19 18 18 17 17 17 17 17 16 16 15 15 15 15 14 12 11 11 10 8 7 8 8 8 9 8 8 9 9 7 6 5 5 7 8 8 7 6 5 5 6 6 7 8 9 7 6 4 2 2 2 2 2 2
10 11 12 14 16 17 18 18 18 17 16 15 15 16 18 19 20 21 21 21 20 19 19 18 18 18 19 18 18 17 15 14 14 13 12 10 8 8 8 7 7 7 7 7 8 7 6 6 5 3 3 3 3 5 7 8 7 5 4 5 5 5 5 6 7 7 7 7 5 3 3 3 3 3
Wind_Direction
254 248 246 245 243 243 252 263 265 269 273 273 274 284 297 303 305 305 308 315 321 325 316 312 312 304 301 305 305 308 315 317 308 287 271 274 285 292 298 308 309 309 313 311 308 311 313 320 332 339 343 347 352 354 354 356 359 6 14 17 12 4 356 345 345 352 356 8 19 23 42 47 48 52
261 257 252 249 242 240 250 259 260 263 268 269 268 274 285 292 294 295 296 301 311 319 313 308 313 311 307 305 301 300 304 305 299 282 266 267 276 281 285 297 305 309 312 307 304 306 307 315 327 336 342 347 349 352 354 356 359 4 11 18 17 11 5 352 341 343 345 358 15 19 28 54 56 61
265 265 262 256 246 244 250 254 257 261 265 267 265 267 272 276 281 285 286 287 294 307 306 301 307 313 315 313 305 296 291 292 295 288 272 267 273 279 284 291 300 309 313 306 301 299 299 308 322 331 339 345 347 349 352 355 359 2 6 11 14 13 10 1 347 337 331 338 2 21 25 41 64 71
259 263 264 261 253 247 251 255 257 262 268 270 266 262 260 263 271 278 279 279 284 293 296 295 302 308 312 313 306 298 290 288 294 292 282 277 277 281 285 288 294 307 313 306 297 294 295 306 318 326 333 343 347 347 350 355 359 360 1 4 7 8 10 9 359 347 329 316 325 9 27 45 117 93
248 256 264 267 264 258 259 261 264 273 279 274 264 259 255 260 272 279 278 276 281 286 287 291 301 307 311 311 306 304 301 295 293 292 287 284 284 286 287 286 291 304 311 307 301 298 300 308 315 319 327 340 346 346 348 354 358 358 357 360 2 4 6 10 8 359 339 308 288 277 358 26 147 154
250 260 269 272 272 267 264 263 267 274 274 258 254 259 261 270 281 283 282 281 283 287 290 294 300 304 308 309 309 308 305 301 296 292 289 287 286 286 286 286 291 301 306 305 303 302 303 310 315 315 321 335 343 344 346 350 355 357 355 355 358 3 6 6 11 11 355 318 271 241 261 333 252 185
261 267 274 277 275 270 266 265 265 265 261 256 262 268 273 281 285 284 284 285 286 289 293 297 299 301 300 302 307 307 305 304 301 297 295 294 292 289 287 289 294 299 302 301 300 298 301 310 315 313 315 328 338 339 341 344 349 355 355 352 353 360 6 8 10 16 12 354 280 244 230 259 312 215
267 266 268 270 270 266 264 266 264 261 261 264 268 271 277 282 282 281 282 285 287 288 290 292 296 299 298 298 302 305 302 301 299 298 296 295 295 294 292 293 296 299 300 299 296 294 298 305 310 309 310 321 332 331 335 340 346 354 357 351 349 353 1 8 12 16 22 27 346 260 239 242 263 255
268 264 262 263 265 262 262 266 267 266 266 267 269 271 275 277 278 279 281 282 284 284 286 288 291 295 296 296 300 301 298 297 296 294 293 293 294 294 294 296 300 301 300 296 293 292 295 300 302 303 305 314 324 326 331 339 347 356 357 352 348 347 352 1 8 14 20 28 33 3 256 243 248 264
266 267 268 269 267 263 264 267 266 267 268 269 272 273 272 272 275 279 281 281 280 280 282 285 287 290 292 293 297 297 295 296 296 292 288 290 293 295 297 300 304 304 297 291 290 292 295 296 294 295 299 306 316 323 328 337 349 356 353 352 351 346 345 350 357 8 14 18 25 33 28 232 242 256
266 269 272 274 271 267 267 265 263 267 271 273 275 275 274 274 276 280 280 279 279 280 281 283 285 289 291 291 292 294 293 294 295 291 286 287 290 293 296 299 304 305 296 288 287 293 296 292 287 289 292 294 301 312 322 333 346 351 347 348 353 349 345 343 345 353 3 9 12 12 17 259 230 232
266 267 269 273 275 272 264 258 258 263 269 275 279 277 276 277 277 278 277 277 279 281 281 283 286 289 290 289 289 292 294 295 296 295 291 291 295 296 294 295 300 302 299 293 289 292 293 286 281 285 288 286 285 298 314 326 340 345 342 343 351 353 350 346 342 342 347 354 359 356 352 298 255 230
264 266 268 272 274 268 259 257 259 260 261 268 274 275 276 278 279 278 276 277 279 282 283 284 286 289 289 289 291 293 295 296 296 294 292 293 296 296 292 291 294 295 296 294 291 289 289 283 280 282 284 280 272 284 304 318 331 336 334 338 349 353 351 346 344 342 340 342 343 341 337 305 260 238
262 264 268 272 271 266 262 264 266 264 259 257 262 270 274 276 277 277 278 279 281 285 287 287 289 290 289 290 295 297 297 299 298 296 294 293 293 291 289 289 291 291 292 292 290 286 282 279 279 280 281 273 261 272 289 301 315 324 321 326 342 350 351 343 339 340 337 335 332 328 325 311 275 239
262 263 266 269 268 266 267 270 268 265 262 258 259 264 268 269 271 274 277 279 281 285 288 290 290 290 291 294 297 297 298 299 299 298 296 294 293 291 289 287 288 290 292 291 288 284 278 275 274 276 275 264 249 255 268 278 293 305 306 311 327 344 352 348 341 338 332 325 319 313 310 303 289 264
260 261 263 266 266 266 268 270 270 269 267 265 261 258 259 263 267 271 274 276 279 282 285 287 288 289 292 294 296 297 297 296 296 297 296 295 295 293 288 285 287 291 291 285 282 280 275 271 270 272 271 256 240 244 252 262 274 282 289 300 317 334 343 344 343 342 337 323 306 294 289 285 278 267
256 256 258 262 265 267 266 268 272 273 270 267 262 258 259 260 262 267 271 273 277 279 280 283 286 289 292 293 294 296 294 291 292 294 295 295 296 293 288 284 285 287 284 278 276 276 272 270 269 270 266 250 236 238 242 251 265 272 278 290 306 323 330 333 338 344 345 332 305 284 274 268 263 256
255 254 257 260 262 262 263 266 271 273 271 268 266 265 264 262 262 264 266 268 271 272 274 278 282 285 286 286 288 290 288 287 288 290 292 292 292 292 290 286 283 280 277 275 271 269 269 269 268 267 262 249 238 236 239 245 256 266 271 280 296 312 322 330 339 346 349 341 312 281 266 259 254 248
255 253 253 254 256 256 259 263 266 268 269 268 268 269 268 268 269 269 269 269 269 270 272 275 278 281 281 280 281 282 283 283 283 285 286 286 287 288 288 285 280 276 275 273 267 265 266 265 264 265 258 245 236 234 237 242 250 258 265 272 286 304 317 329 341 348 351 344 312 276 260 254 250 246
248 248 248 249 252 255 258 261 263 263 265 266 269 272 274 274 275 275 275 274 273 274 276 277 279 281 280 279 278 279 281 282 283 283 283 283 286 288 287 284 281 277 276 274 267 264 263 258 257 261 255 243 237 234 232 236 245 253 259 266 278 298 315 329 342 350 355 347 304 265 251 249 248 248
238 243 246 249 252 251 252 256 259 261 263 266 269 272 274 275 276 277 277 277 277 279 280 281 281 282 282 282 282 283 283 283 283 283 283 285 288 289 286 285 283 280 278 277 272 266 262 257 254 255 251 241 236 236 231 229 240 248 251 259 273 292 308 327 345 355 6 1 304 252 240 244 245 248
234 239 241 242 245 245 247 251 254 256 260 263 266 269 272 275 278 279 281 281 282 282 282 283 283 283 283 284 283 284 284 282 280 279 281 285 288 286 284 283 285 285 281 279 275 267 262 258 252 249 245 238 235 238 234 228 235 242 242 249 264 281 291 313 344 357 17 22 347 249 230 240 245 247
232 233 236 237 239 243 246 250 252 256 259 262 266 270 274 278 282 284 288 290 289 288 287 287 286 286 286 285 284 284 282 280 279 277 277 278 278 280 282 282 285 289 287 286 282 271 261 257 251 243 238 233 231 230 226 226 232 234 232 238 248 257 265 286 332 347 13 29 19 295 240 242 247 252
227 228 230 232 236 242 246 248 252 259 264 266 271 276 280 284 287 288 290 292 292 293 293 293 292 291 289 288 286 284 282 280 279 277 276 274 272 276 282 283 285 289 290 289 286 276 266 260 254 245 236 235 232 223 215 217 223 223 221 226 232 233 236 245 291 329 350 19 25 358 267 251 253 258
212 221 227 228 231 238 245 248 248 257 268 273 278 282 286 289 291 292 293 295 296 297 297 297 296 294 292 290 288 287 285 282 279 277 278 277 272 272 279 283 285 287 286 284 283 278 270 264 256 241 228 231 233 223 211 210 211 210 212 218 224 223 222 225 239 298 326 348 8 5 297 258 263 268
176 208 228 230 231 237 256 269 269 274 285 291 293 293 295 296 298 300 301 303 304 304 303 302 300 297 295 293 292 293 293 292 290 288 288 288 283 279 279 281 284 286 286 286 288 286 278 266 254 235 218 220 221 210 203 199 195 196 204 209 213 215 217 219 224 248 295 319 343 355 330 252 259 269
96 228 250 255 270 285 287 287 294 307 313 312 311 309 307 307 308 309 310 310 311 310 307 305 303 303 305 306 307 309 307 303 300 296 290 286 285 284 283 284 288 292 294 296 298 297 288 268 248 230 216 211 200 187 186 188 189 196 203 204 202 206 211 213 215 229 264 293 312 323 319 272 247 251
1 295 283 288 301 303 297 302 325 340 338 333 329 325 321 319 319 319 317 315 313 311 310 313 314 315 318 319 318 316 305 289 279 276 274 275 280 287 292 298 301 300 302 305 303 300 291 267 241 224 211 203 192 182 181 186 193 199 200 198 195 196 202 207 212 225 248 262 267 290 305 302 283 263
36 37 37 39 32 17 353 350 355 355 350 347 344 340 335 332 329 326 324 321 319 321 327 332 329 327 328 324 317 313 303 286 277 281 291 298 307 315 319 320 317 311 314 317 305 290 276 254 235 222 212 203 197 194 193 195 199 196 194 195 193 187 190 201 209 218 235 241 245 275 298 303 298 286
76 82 88 92 88 69 41 22 14 6 360 357 357 356 355 352 350 349 350 352 357 4 9 9 10 17 22 21 21 20 17 16 18 17 8 355 356 2 359 355 18 46 48 38 20 354 318 261 237 228 217 196 182 190 190 187 191 189 186 192 192 183 183 194 201 205 220 236 254 280 292 296 291 278
85 83 85 88 86 74 55 29 13 6 6 10 15 17 17 18 21 24 26 27 32 37 39 40 45 49 47 47 49 50 53 59 61 60 58 58 57 48 36 49 69 67 62 56 49 43 37 23 348 254 202 168 177 193 191 185 185 183 169 171 183 183 181 188 195 200 213 236 266 284 287 286 278 260
72 73 73 76 73 60 32 11 6 12 23 29 26 24 26 31 34 35 38 43 47 52 55 59 63 65 64 63 63 64 69 72 73 72 68 61 52 37 16 18 42 45 40 39 39 42 44 43 45 56 120 187 192 199 199 191 187 185 175 171 179 184 181 186 198 210 225 248 273 287 289 283 262 234
50 59 60 53 36 16 6 8 20 34 39 36 30 27 29 35 38 39 43 47 51 57 66 73 76 77 75 75 74 73 74 74 72 68 58 45 35 24 12 11 19 19 18 21 22 33 51 58 60 59 80 173 173 177 188 183 172 170 176 179 186 194 193 195 210 233 259 276 287 292 287 271 239 207
356 357 2 3 1 4 13 28 40 43 36 31 32 33 32 36 42 46 48 49 48 51 58 64 69 73 79 85 85 80 76 74 69 59 48 36 28 21 16 13 10 3 4 15 21 23 45 74 72 52 55 143 158 157 164 167 164 166 177 187 196 208 217 231 252 275 289 293 294 289 272 244 211 192
342 352 5 18 31 44 51 48 46 41 31 28 32 34 34 44 54 56 52 49 47 51 60 65 69 74 82 87 84 74 68 66 58 46 33 22 18 15 10 5 2 357 353 1 21 25 27 53 77 72 100 146 161 165 166 173 182 187 193 202 213 224 239 255 271 283 289 289 286 272 244 218 200 194
47 56 60 63 65 68 69 62 51 41 34 32 34 35 39 52 60 56 49 45 46 59 69 66 60 58 59 58 53 48 43 37 29 21 13 7 5 2 357 352 353 355 351 348 357 7 5 5 331 202 179 170 177 179 175 184 197 204 211 223 230 236 246 259 270 274 275 273 268 251 229 216 210 211
59 64 65 66 67 70 74 70 54 37 30 32 39 46 49 52 55 53 47 42 39 46 49 40 31 29 30 31 30 25 17 10 3 357 353 352 351 350 348 347 346 347 345 340 334 329 328 326 280 227 215 206 204 201 197 202 211 217 224 233 236 236 242 251 256 253 252 253 251 242 232 228 226 229
60 65 65 64 64 65 66 65 55 41 35 40 50 56 54 49 47 51 52 44 33 26 16 6 1 0 359 355 352 351 350 348 345 343 341 341 341 341 342 342 340 335 331 324 312 303 303 305 277 238 233 230 221 216 213 213 217 219 225 234 239 238 240 245 250 254 258 254 247 242 236 232 233 235
54 62 64 64 63 62 63 67 70 69 68 66 63 60 56 48 40 36 28 15 8 2 350 343 340 336 329 323 323 326 330 330 329 328 328 329 331 332 333 333 329 321 308 297 292 292 293 294 281 258 255 264 264 254 239 231 230 231 232 239 247 249 248 249 252 258 257 244 248 267 248 234 229 228
43 52 61 62 59 57 56 58 64 71 78 79 71 59 48 32 359 327 320 320 318 312 310 314 318 317 314 313 314 316 319 321 319 318 317 317 318 319 320 321 319 313 303 290 284 285 287 289 287 278 273 275 279 278 263 243 238 239 238 237 235 233 238 250 259 261 256 260 337 298 243 236 232 228
33 37 41 41 39 37 33 26 21 17 14 15 14 359 333 320 312 307 305 306 307 306 304 306 309 310 308 307 307 308 309 310 309 309 309 309 309 310 311 310 308 304 297 291 290 290 289 288 287 286 286 291 293 285 261 233 229 229 222 217 216 217 227 246 261 267 272 301 11 45 236 242 238 230
28 28 27 24 22 21 17 12 8 360 348 338 333 329 328 328 327 323 321 318 315 312 311 309 308 307 306 306 307 309 311 311 311 311 310 310 311 311 309 307 305 297 288 285 289 292 291 290 287 284 285 289 283 258 237 227 227 226 214 210 216 224 233 241 250 255 260 281 20 82 171 203 205 214
21 22 22 20 15 11 8 7 7 6 3 358 352 347 346 345 343 340 337 332 327 323 321 319 318 317 318 319 322 326 329 328 326 326 323 320 320 318 311 307 303 295 285 279 282 288 296 299 295 289 285 282 269 250 243 242 243 243 240 233 231 231 232 233 234 233 227 221 119 95 143 172 191 206
9 9 14 13 9 5 4 3 3 4 4 4 360 354 349 346 345 343 342 338 333 329 326 325 325 324 323 325 327 330 332 332 331 330 328 326 323 319 312 304 296 291 288 281 279 290 309 317 309 294 280 268 253 240 234 229 227 231 233 228 227 228 225 220 217 214 205 194 179 157 155 160 162 162
353 357 5 6 3 1 359 356 356 357 356 353 349 345 342 340 338 336 334 331 327 323 320 317 317 316 317 319 323 323 324 325 326 324 321 320 318 313 304 293 289 297 302 298 294 305 325 331 317 284 247 244 246 229 219 216 219 227 230 229 238 245 230 211 204 201 195 190 192 197 192 181 176 184